Flag for Canada Weather past 2 weeks in Taloyoak, Nunavut, Canada

Now
7 °F

Light snow. Partly cloudy.


Feels Like: 0 °F
Forecast: -5 / 7 °F
Wind: 3 mph from Northwest

Location: Spence Bay Airport

Current Time: Apr 18, 2015 at 9:28:18 PM

Latest Report: Apr 18, 2015 at 9:00 PM


Visibility: 15 mi

Pressure: 30.11 "Hg

Humidity: 78%

Dew point: 1 °F

Location of TaloyoakLocation

Historic Weather in Taloyoak — Graph

°F

Taloyoak temperature yesterday

Maximum temperature yesterday: 5 °F (at 11:00 PM)
Minimum temperature yesterday: -17 °F (at 2:00 AM)
Average temperature yesterday: -5 °F

Past Weeks' High & Low Weather Summary

 TemperatureHumidityPressure
High12 °F (Apr 18, 2:00 PM)85% (Apr 17, 6:00 PM)30.12 "Hg (Apr 17, 6:00 PM)
Low-33 °F (Apr 4, 5:00 AM)55% (Apr 16, 2:00 PM)29.54 "Hg (Apr 11, 11:00 PM)
Average-14 °F73%29.86 "Hg
* Reported Apr 3 8:00 PM — Apr 18 8:00 PM, Taloyoak, Weather by CustomWeather, © 2015

Note: Actual official high and low records may vary slightly from our data, if they occured in-between our weather recording intervals... More about our weather records

Advertising

Taloyoak weather history for previous 24 hours

 ConditionsComfort  
Time TempWeatherWind HumidityBarometerVisibility
8:00 PM
Sat, Apr 18
7 °FLight snow. Fog.No wind85%30.11 "Hg8 mi
7:00 PM9 °FLight snow. Ice fog.7 mph85%30.11 "Hg1 mi
6:00 PM10 °FLight snow. Fog.9 mph79%30.11 "Hg10 mi
5:00 PM10 °FLight snow. Ice fog.13 mph85%30.10 "Hg3 mi
4:00 PM10 °FLight snow. Ice fog.13 mph79%30.11 "Hg2 mi
3:00 PM10 °FLight snow. Ice fog.8 mph85%30.10 "Hg2 mi
2:00 PM12 °FLight snow. Ice fog.13 mph73%30.09 "Hg3 mi
1:00 PM10 °FPartly sunny.17 mph79%30.07 "Hg15 mi
12:00 PM9 °FFog.13 mph78%30.06 "Hg15 mi
11:00 AM10 °FFog.17 mph72%30.04 "Hg15 mi
10:00 AM9 °FFog.8 mph78%30.04 "Hg15 mi
9:00 AM7 °FLight snow. Fog.13 mph78%30.02 "Hg15 mi
8:00 AM9 °FLight snow. Fog.7 mph78%30.02 "Hg10 mi
7:00 AM7 °FLight snow. Partly sunny.3 mph78%30.00 "Hg15 mi
6:00 AM5 °FPassing clouds.21 mph78%29.96 "Hg15 mi
5:00 AM5 °FLight snow. Partly sunny.21 mph85%29.95 "Hg15 mi
4:00 AM5 °FLight snow. Overcast.15 mph85%29.94 "Hg15 mi
3:00 AM5 °FLight snow. Overcast.16 mph85%29.92 "Hg15 mi
2:00 AM5 °FLight snow. Overcast.23 mph85%29.88 "Hg12 mi
1:00 AM5 °FLight snow. Passing clouds.20 mph85%29.87 "Hg12 mi
12:00 AM5 °FLight snow. Passing clouds.23 mph78%29.85 "Hg12 mi
11:00 PM
Fri, Apr 17
5 °FLight snow. Passing clouds.13 mph78%29.86 "Hg15 mi
10:00 PM3 °FLight snow. Mostly cloudy.12 mph78%29.85 "Hg12 mi
9:00 PM3 °FLight snow. Ice fog.20 mph78%29.83 "Hg4 mi
Weather by CustomWeather, © 2015

See weather overviewHow to use our weather pages